sat.trackr.live / text

‹ back to catalog

2024-105D

NORAD 59920 · 2024-105D

PAYLOAD ACTIVE UNKNOWN

§ Identity

Operator
Country
PRC
Launch date
2024-05-30
Launch site
JSC
Launch vehicle
Mass (kg)
RCS (m²)

External: N2YO · Heavens-Above · Gunter

§ Orbital elements

Epoch: 2026-09-22T23:35:03.103584Z

Period
94.52 min
Inclination
97.5807°
Eccentricity
0.0010019
Mean motion
15.23495664 rev/d
Perigee alt
488.4 km
Apogee alt
502.2 km
Semi-major
6,873.4 km
B*
1.5926e-4
RAAN
285.8725°
Arg perigee
231.9072°
Mean anomaly
128.1261°
Rev number
12,814

§ Raw data

2024-105D1 59920U 24105D   26265.98267481  .00003730  00000+0  15926-3 0  99912 59920  97.5807 285.8725 0010019 231.9072 128.1261 15.23495664128147

JSON: /api/v1/satellites/59920 · /tle

For live sub-satellite position, see the globe view (requires WebGL).

§ Visibility from observer

Set your observer location to see the next 7 days of passes ≥ 10°. The values pass through the URL so the page stays shareable.

No JS? Fill the form by hand. The geolocation button needs JavaScript.